Regional Weather Roundup
Issued by NWS

Home | Current Version | Previous Version | Text Only | Print | Product List | Glossary Off
Versions: 1 2 3 4 5 6 7 8 9 10 11 12 13 14 15 16 17 18 19 20 21 22 23 24 25 26 27 28 29 30 31 32 33 34 35 36 37 38 39 40 41 42 43 44 45 46 47 48 49 50

000
ASUS45 KCYS 231410
RWRWY

WYOMING REGIONAL WEATHER ROUNDUP
NATIONAL WEATHER SERVICE CHEYENNE WY
800 AM MDT WED JUL 23 2014

NOTE:  "FAIR" INDICATES FEW OR NO CLOUDS BELOW 12,000 FEET
WITH NO SIGNIFICANT WEATHER AND/OR OBSTRUCTIONS TO VISIBILITY.

WYZ001-231500-
YELLOWSTONE NATIONAL PARK

CITY           SKY/WX    TMP DP  RH WIND       PRES   REMARKS
LK YELLOWSTONE   N/A     57  49  74 CALM      30.43R
W YELLOWSTONE  NOT AVBL

$$
WYZ002>013-054>058-071-098>099-231500-
NORTHERN WYOMING

CITY           SKY/WX    TMP DP  RH WIND       PRES   REMARKS
JACKSON        SUNNY     54  43  66 CALM      30.35R
CODY           MOSUNNY   64  46  52 CALM      30.26S
GREYBULL       SUNNY     69  50  50 W6        30.20R
WORLAND        SUNNY     66  51  58 W5        30.20S
SHERIDAN       MOSUNNY   70  59  68 S9        30.19S
BUFFALO        SUNNY     67  58  72 SE16      30.26S
GILLETTE       CLOUDY    69  61  75 S18G28    30.27R
HULETT         FAIR      72  57  60 MISG      30.28
NEWCASTLE      FAIR      70  52  52 SE13      30.31

$$
WYZ014>020-022>026-101>103-231500-
CENTRAL WYOMING

CITY           SKY/WX    TMP DP  RH WIND       PRES   REMARKS
BIG PINEY      MOSUNNY   58  33  39 CALM      30.41R
PINEDALE       MOSUNNY   50  41  71 MISG      30.42R
DUBOIS         FAIR      55  34  44 NW12      30.43R
LANDER         SUNNY     65  47  52 CALM      30.29S
RIVERTON       SUNNY     66  52  60 SE5       30.30R
CASPER         SUNNY     64  57  78 N3        30.31S
DOUGLAS        MOSUNNY   70  61  73 SE25G35   30.31F

$$
WYZ021-027>030-104>119-231500-
SOUTHERN WYOMING

CITY           SKY/WX    TMP DP  RH WIND       PRES   REMARKS
EVANSTON       SUNNY     64  30  27 S7        30.38R
KEMMERER       MOSUNNY   55  32  41 N8        30.41R
FORT BRIDGER   FAIR      68  25  20 W7        30.41R
ROCK SPRINGS   MOSUNNY   67  23  19 E6        30.36S
DIXON          FAIR      65  40  38 S3        30.41S
RAWLINS        SUNNY     68  37  32 E7        30.40R
SARATOGA       FAIR      68  43  40 E5        30.43R
LARAMIE        SUNNY     66  54  65 S7        30.45R
CHEYENNE       CLOUDY    63  60  90 SE7       30.43R FOG
TORRINGTON     CLOUDY    69  58  67 SE15G23   30.32S
PINE BLUFFS    CLOUDY    64  63  94 E14       30.39S FOG

$$



USA.gov is the U.S. government's official web portal to all federal, state and local government web resources and services.